Saturday, July 02, 2016
05:41 UTC
  |  Log In   |  Register Free
Airport Search:

Faribault Municipal Airport
(KFBL)

Faribault Municipal Airport Diagram
No Airport Diagram Available

FAA data valid effective May 26 2016 - Jul 21 2016 (unless otherwise noted).

 
 
 
 
 
 
 
 
 
 
 
 
 
 
Summary: Faribault Municipal (FBL)

Weather Summary


METAR for KFBL is not available. Closest METAR is for KOWA
KFBL  (most recent observation was updatred at 20:53 UTC)
020534Z AUTO 00000KT 10SM CLR 14/13 A3016 RMK AO2

KOWA  (12.5 nm NW)   (most recent observation was updated at 20:53 UTC)
020535Z AUTO 11003KT 10SM CLR 16/12 A3016 RMK AO2

KSYN  (15.5 nm SW)   (most recent observation was updated at 20:53 UTC)
020535Z AUTO 20003KT 10SM CLR 14/12 A3015 RMK AO2 T01430117

TAF for KFBL is not available.
KMSP  (33.5 nm SW)   (most recent observation was updatred at 20:52 UTC)
020520Z 0206/0312 14004KT P6SM SCT250 FM021400 15006KT P6SM SCT045 BKN250 FM030200 13004KT P6SM SCT100 SCT250


GlobalAir.com is loading additional information.
 Current Weather at FBL
57.0 F° (14.0 C°)
Fair
North winds at 0.0 mph
Pressure:
30.15 in
Humidity:
94%
Wind:
Calm
Dew Point:
55.4 F° (13.0 C°)
Visibility:
10.00 mi
FBL NOAA Radar

Runway Summary

ID Dimensions Surface Instrument Approaches
12/30 75 ft x 4257 ft Asphalt, Good Condition RNAV (GPS) RWY 12
RNAV (GPS) RWY 12
RNAV (GPS) RWY 30
VOR-A
01/19 175 ft x 2300 ft Turf N/A

Communications Summary


CTAF122.80
UNICOM122.80
ATISN/A
WX AWOS-3
MINNEAPOLIS APPROACH134.7
MINNEAPOLIS DEPARTURE134.7
CLEARANCE DELIVERYN/A

Terminal Procedures Summary


Arrivals
Approaches
More Approaches
Special Minimums

Closest Alternate Airports with Instrument Procedures

KOWA - Owatonna Degner Regional - 14.3 nm SE from FBL

0MN1 - Mayo Clinic Health System - New Prague - 17.3 nm NW from FBL

KLVN - Airlake - 21.2 nm NE from FBL

KACQ - Waseca Municipal - 21.3 nm SW from FBL

KMKT - Mankato Regional - 31 nm SW from FBL

KTOB - Dodge Center - 32 nm SE from FBL

KFCM - Flying Cloud - 35.3 nm NW from FBL

KMSP - Minneapolis-St Paul International/Wold-Chamberlain - 38.6 nm NE from FBL

KSGS - South St Paul Municipal-Richard E Fleming Fld - 39.1 nm NE from FBL

KSTP - St Paul Downtown Holman Fld - 43.8 nm NE from FBL

Find All Airport Services Find A Hotel Find A Rental Car Find A Golf Course Find A Restaurant $100 Hamburger



FBO's on the Field
FBO Company Facility Photos Services Transportation Aviation Fuel Prices: Prices include tax
Catering Weather Repair Courtesy Rental Type 100LL JetA JetA+ MOGAS 8087
 
Quality Aviation

This FBO has not yet been rated
FS:Independent
Last Updated: Jun-10
Login to update fuel prices
SS:
Contact Quality AviationMore FBO Information
 
Add another FBO Facility Photos Catering Weather Repair Courtesy Rental Type 100LL JetA JetA+ MOGAS 8087
Services Transportation Aviation Fuel Prices: Prices include tax


model-print
model-print
model-print
model-print